User: anonymous   Login
Location: Blanot
(47.1713°N, 4.2340°E)
Time: 06:18:38
(UTC+00:00)
Language:

Cosmos 468 Rocket - Orbit

View from above orbital plane
View from above orbital plane
View from above satellite
View from above satellite

Ground track
Ground track

The orbit data is extracted from the following two-line orbital elements,

1  5707U 71114B   20272.49497297 -.00000004 +00000-0 +72839-5 0  9996
2  5707 074.0291 033.3927 0024429 169.2180 190.9504 14.38908812555062
Epoch (UTC): 28 September 2020 11:52:45
Eccentricity: 0.0024429
inclination: 74.0291°
perigee height: 744 km
apogee height: 779 km
right ascension of ascending node: 33.3927°
argument of perigee: 169.2180°
revolutions per day: 14.38908812
mean anomaly at epoch: 190.9504°
orbit number at epoch: 55506

The dashed part of the orbit path shows where the satellite is in the earth's shadow,  

DLR